Location: Pedholt
(56.0260°N, 10.2097°E)
Time: 06:21:14
(UTC+00:00)

Tiros 1 - Visible Passes

Search period start: 31 July 2021 00:00
Search period end: 10 August 2021 00:00
Orbit: 630 x 664 km, 48.4° (Epoch: 30 July)

Date Brightness Start Highest point End Pass type
(mag) Time Alt. Az. Time Alt. Az. Time Alt. Az.
31 Jul 8.0 21:04:32 10° WSW 21:08:43 31° S 21:12:04 14° SE visible
31 Jul 8.7 22:46:49 10° WSW 22:49:41 18° SSW 22:49:41 18° SSW visible
01 Aug 8.3 21:30:23 10° WSW 21:34:18 26° SSW 21:36:21 19° SSE visible
01 Aug 9.4 23:13:56 10° SW 23:13:58 10° SW 23:13:58 10° SW visible
02 Aug 8.1 20:14:16 10° WSW 20:18:29 32° S 20:22:39 10° SE visible
02 Aug 8.7 21:56:30 10° WSW 21:59:48 19° SSW 22:00:41 18° SSW visible
03 Aug 8.3 20:40:06 10° WSW 20:44:04 27° SSW 20:47:26 13° SE visible
03 Aug 9.2 22:23:22 10° WSW 22:25:03 12° SW 22:25:03 12° SW visible
04 Aug 8.8 21:06:10 10° WSW 21:09:35 20° SSW 21:11:50 14° S visible
05 Aug 9.2 21:32:52 10° WSW 21:34:58 13° SW 21:36:17 12° SSW visible
06 Aug 8.8 20:15:51 10° WSW 20:19:22 21° SSW 20:22:51 10° SSE visible
07 Aug 9.3 20:42:25 10° WSW 20:44:46 14° SW 20:47:05 10° S visible
09 Aug 9.4 19:52:01 10° WSW 19:54:33 14° SSW 19:57:06 10° S visible
